User: anonymous   Login
Location: Goll?ig?dem
(16.6773°N, 80.7332°E)
Time: 02:20:49
(UTC+00:00)
Language:

Cosmos 2369 Rocket - Orbit

View from above orbital plane
View from above orbital plane
View from above satellite
View from above satellite

Ground track
Ground track

The orbit data is extracted from the following two-line orbital elements,

1 26070U 00006B   25191.60365457  .00000084  00000-0  67008-4 0  9992
2 26070  71.0016 246.8384 0017056 197.7237 162.3293 14.15781345314296
Epoch (UTC): 10 July 2025 14:29:15
Eccentricity: 0.0017056
inclination: 71.0016°
perigee height: 827 km
apogee height: 852 km
right ascension of ascending node: 246.8384°
argument of perigee: 197.7237°
revolutions per day: 14.15781345
mean anomaly at epoch: 162.3293°
orbit number at epoch: 31429

The dashed part of the orbit path shows where the satellite is in the earth's shadow,  

DLR